This is the latest recevied weather packets stored in our database for station/object KA1AL. If no packets are shown the sender has not sent any weather packets the latest 10 day(s).
| Time | Temp. | Humidity | Pressure | Rain* | Wind** | Luminosity | Snow |
|---|---|---|---|---|---|---|---|
| 1777577755 | 6.11° C | 99% | 1007 hPa | 4.83 mm | - | 72 W/m² | - |
| 1777577452 | 6.11° C | 99% | 1006.9 hPa | 6.1 mm | - | 74 W/m² | - |
| 1777577149 | 6.11° C | 99% | 1006.9 hPa | 9.65 mm | - | 46 W/m² | - |
| 1777576845 | 6.11° C | 99% | 1007 hPa | 7.87 mm | - | 21 W/m² | - |
| 1777576544 | 6.11° C | 99% | 1006.9 hPa | 4.32 mm | - | 27 W/m² | - |
| 1777576241 | 6.11° C | 99% | 1007.2 hPa | 4.83 mm | - | 41 W/m² | - |
| 1777575937 | 6.11° C | 99% | 1007 hPa | 1.78 mm | - | 54 W/m² | - |
| 1777575633 | 6.11° C | 99% | 1007.1 hPa | 0 mm | - | 54 W/m² | - |
| 1777575330 | 6.11° C | 99% | 1007 hPa | 0 mm | - | 68 W/m² | - |
| 1777575026 | 6.11° C | 99% | 1007.2 hPa | 1.27 mm | - | 78 W/m² | - |
| 1777574722 | 6.11° C | 99% | 1007.1 hPa | 1.27 mm | - | 96 W/m² | - |
| 1777574419 | 6.11° C | 99% | 1006.9 hPa | 1.27 mm | - | 152 W/m² | - |
| 1777574115 | 6.11° C | 99% | 1007.3 hPa | 0 mm | - | 140 W/m² | - |
| 1777573810 | 6.11° C | 99% | 1007.3 hPa | 3.05 mm | - | 203 W/m² | - |
| 1777573506 | 6.11° C | 99% | 1007.7 hPa | 4.83 mm | - | 115 W/m² | - |
| 1777573202 | 6.11° C | 99% | 1007.6 hPa | 1.78 mm | - | 82 W/m² | - |
| 1777572899 | 6.11° C | 99% | 1007.6 hPa | 1.78 mm | - | 118 W/m² | - |
| 1777572595 | 6.67° C | 99% | 1007.8 hPa | 1.78 mm | - | 121 W/m² | - |
| 1777572295 | 6.11° C | 99% | 1007.3 hPa | 1.27 mm | - | 72 W/m² | - |
| 1777571991 | 6.11° C | 99% | 1007.6 hPa | 1.27 mm | - | 117 W/m² | - |
| 1777571691 | 6.11° C | 99% | 1007.6 hPa | 0 mm | - | 94 W/m² | - |
| 1777571390 | 6.11° C | 99% | 1007.6 hPa | 0 mm | - | 119 W/m² | - |
| 1777571085 | 6.11° C | 99% | 1007.7 hPa | 1.78 mm | - | 107 W/m² | - |
| 1777570781 | 6.11° C | 99% | 1007.9 hPa | 1.78 mm | - | 92 W/m² | - |
| 1777570478 | 6.67° C | 99% | 1007.8 hPa | 0 mm | - | 183 W/m² | - |
* Rain latest hour (hover to see other rain measurements)
** Current wind speed in m/s (hover to see current wind gust speed)